If you wish to contribute or participate in the discussions about articles you are invited to join SKYbrary as a registered user

 Actions

Alice Springs Airport

From SKYbrary Wiki

YBAS
Airport
ICAO: YBAS – IATA: ASP
Summary
Name Alice Springs Airport
Region Asia and Pacific
Territory Australia AU.gif
Location , Northern Territory
Serving Alice Springs
Elevation 545.287 m
1,789 ft
1,789 ft545.287 m
Type medium airport
Coordinates 23° 48' 24.01" S, 133° 54' 7.99" E
Runways
Designator Length Width Surface ROPS
12/30 2438 m7,998.688 ft
45 m147.638 ft
ASP yes/yes
17/35 1133 m3,717.192 ft
18 m59.055 ft
ASP yes/yes


METAR
Observation YBAS 160200Z 07008KT 060V140 CAVOK 37/M05 Q1013
Station Alice Springs Aerodrome
Date/Time 16 December 2019 02:00:00
Wind direction 70°
Wind speed 08 kts
Lowest cloud amount clouds and visibility OK
Temperature 37°C
Dew point
Humidity 6%
QNH 1013 hPa
Weather condition n/a